Tracking 19720 objects as of 27-Jun-2019
HD Live streaming from Space Station
objects crossing your sky now

COSMOS 647

Track COSMOS 647 now!
10-day predictions
COSMOS 647 is classified as:


NORAD ID: 7271
Int'l Code: 1974-024G
Perigee: 1,429.4 km
Apogee: 1,490.3 km
Inclination: 74.0 °
Period: 114.9 minutes
Semi major axis: 7830 km
RCS: 0.7018 m2 (medium)
Launch date: April 23, 1974
Source: Commonwealth of Independent States (former USSR) (CIS)
Launch site: PLESETSK MISSILE AND SPACE COMPLEX (PKMTR)
aabbcc
Your satellite tracking list
Your tracking list is empty




NASA's NSSDC Master Catalog

Two Line Element Set (TLE):
1  7271U 74024G   19177.87899569 -.00000002  00000-0  85201-4 0  9993
2  7271  74.0182 338.9052 0038895  58.5671  94.8913 12.52830971 66291
Source of the keplerian elements: AFSPC